sat.trackr.live / text

‹ back to catalog

STARLINK-31414

NORAD 59418 · 2024-064W

PAYLOAD ACTIVE UNKNOWN

§ Identity

Operator
Country
US
Launch date
2024-04-05
Launch site
AFETR
Launch vehicle
Mass (kg)
RCS (m²)

Purposes: comms

External: N2YO · Heavens-Above · Gunter

§ Orbital elements

Epoch: 2026-09-21T09:10:41.780928Z

Period
94.27 min
Inclination
43.0032°
Eccentricity
0.0001190
Mean motion
15.27579033 rev/d
Perigee alt
482.2 km
Apogee alt
483.9 km
Semi-major
6,861.2 km
B*
-5.3593e-5
RAAN
31.0719°
Arg perigee
269.4550°
Mean anomaly
90.6165°
Rev number
13,915

§ Raw data

STARLINK-314141 59418U 24064W   26264.38242802 -.00001736  00000+0 -53593-4 0  99992 59418  43.0032  31.0719 0001190 269.4550  90.6165 15.27579033139152

JSON: /api/v1/satellites/59418 · /tle

For live sub-satellite position, see the globe view (requires WebGL).

§ Visibility from observer

Set your observer location to see the next 7 days of passes ≥ 10°. The values pass through the URL so the page stays shareable.

No JS? Fill the form by hand. The geolocation button needs JavaScript.